Location: Birkenwerder
(52.6919°N, 13.2774°E)
Time: 22:07:44
(UTC+00:00)

STARLINK-48 - Pass Details

Date: 07 June 2020
Orbit: 505 x 506 km, 53.0° (Epoch: 05 July)

Event Time Altitude Azimuth Distance (km) Brightness Sun altitude
Exits shadow 01:53:25 - 246° (WSW) 2,105 6.0 -6.2°
Reaches altitude 10° 01:54:23 10° 244° (WSW) 1,719 5.6 -6.1°
Maximum altitude 01:58:15 69° 162° (SSE) 546 3.5 -5.7°
Drops below altitude 10° 02:02:08 10° 79° (E) 1,724 7.0 -5.4°
Sets 02:04:20 0° 77° (ENE) 2,611 8.1 -5.1°
